Wind_Speed
42 42 41 41 42 41 39 38 37 35 32 29 26 23 21 20 19 18 18 18 17 17 16 15 15 15 15 15 16 16 16 15 14 13 14 14 13 13 13 13 13 12 11 11 11 12 13 13 13 13 12 12 12 12 13 14 14 15 15 17 18 18 20 21 23 26 29 27 25 25 26 25 23 22 23 23 22 22 22 22 21 22 23 25 26
44 44 43 42 43 42 40 39 38 36 34 31 28 26 24 22 20 19 18 18 18 17 16 15 16 16 16 17 17 18 17 16 15 14 14 14 14 13 13 13 12 12 12 12 12 12 13 13 12 11 10 11 12 13 14 15 15 16 16 17 19 19 19 20 21 23 26 28 26 25 25 24 22 22 23 23 23 24 24 24 24 24 24 25 27
45 44 44 43 43 42 40 39 39 38 37 35 31 28 26 23 21 20 19 18 19 18 16 15 16 18 18 19 19 20 19 17 16 15 15 14 14 13 13 13 13 13 13 13 12 12 12 13 12 10 11 13 15 15 16 16 17 17 18 19 20 21 20 20 21 22 24 26 28 28 25 23 22 22 23 24 25 25 25 26 26 26 26 27 29
45 45 45 44 42 41 40 40 42 42 40 38 34 31 28 25 23 22 19 19 19 17 15 15 17 19 20 21 21 21 20 18 16 15 15 15 15 14 13 14 14 14 14 13 13 12 12 13 12 12 13 15 16 17 17 18 18 19 20 21 22 23 22 22 23 23 24 25 28 29 25 21 22 22 23 25 27 27 28 29 29 29 29 28 29
46 45 45 44 42 41 42 44 46 45 43 40 36 34 31 28 26 23 21 20 19 15 15 16 18 20 22 22 22 22 20 18 16 16 16 15 15 15 15 15 15 15 14 13 13 12 12 13 14 14 15 17 17 18 19 19 20 21 22 24 25 25 25 25 25 25 24 24 27 29 26 22 21 21 21 23 25 27 28 29 31 32 31 30 31
47 47 45 45 46 45 48 50 49 47 46 44 41 38 35 32 29 26 24 23 19 15 17 20 20 23 24 23 23 22 20 18 17 16 17 16 16 16 16 16 16 15 15 13 12 13 13 14 15 15 16 17 18 19 20 21 22 23 24 25 27 28 28 28 27 26 25 24 26 28 26 22 20 20 21 23 23 25 26 26 26 25 27 30 32
49 48 46 47 49 48 49 52 52 51 50 47 44 41 38 35 32 30 29 26 22 20 22 24 23 25 26 25 24 23 20 19 19 18 18 17 18 18 18 18 17 16 15 14 13 13 13 14 15 16 17 18 19 20 21 22 23 24 26 26 27 28 28 28 27 26 25 25 26 27 26 24 21 20 21 23 23 24 24 24 23 20 21 24 28
49 47 46 48 51 50 49 51 53 55 54 50 48 44 40 37 36 34 31 29 27 26 26 27 27 27 28 27 25 24 22 21 21 20 19 18 18 19 18 18 17 16 15 14 13 13 13 15 16 16 18 19 20 21 22 23 24 25 26 26 25 26 26 26 26 26 25 25 26 26 27 26 23 21 21 21 23 24 23 25 27 25 22 22 23
46 45 46 48 51 51 51 49 50 55 56 52 48 43 40 38 37 35 32 30 29 28 27 29 30 29 29 29 28 25 24 24 22 20 19 18 18 18 18 17 16 16 14 13 13 14 15 16 17 18 19 20 21 22 23 23 24 26 26 25 25 26 26 26 26 27 26 25 25 25 26 26 24 23 23 22 23 25 24 26 29 28 27 26 23
43 44 45 48 49 50 50 48 47 51 53 49 46 44 41 40 40 38 33 30 27 27 28 32 33 32 31 31 30 28 27 25 23 21 19 18 18 18 17 17 16 15 14 14 15 17 18 18 19 19 20 21 23 24 24 24 24 26 26 24 24 26 26 27 28 28 28 28 27 25 25 27 26 24 25 26 26 26 26 26 28 31 34 33 28
40 42 43 45 46 46 47 46 45 46 49 49 51 52 47 44 44 40 34 28 25 26 32 36 36 34 33 33 32 30 29 26 23 21 19 18 18 18 18 17 16 16 16 17 18 19 20 21 21 21 22 24 25 25 25 25 25 25 25 24 25 26 26 28 29 29 30 30 29 28 27 29 28 27 28 28 27 26 27 28 30 33 34 33 32
37 39 40 42 43 43 44 44 43 44 46 49 52 56 54 52 50 43 36 32 29 31 38 40 37 36 35 34 33 32 30 27 24 22 21 20 20 20 20 19 18 19 19 20 21 22 24 24 23 24 25 26 27 26 26 25 26 26 25 25 25 25 26 28 29 29 30 29 29 30 30 29 31 31 30 29 29 29 30 30 31 30 29 29 32
34 35 37 38 40 41 41 42 42 42 44 46 48 52 55 57 55 48 43 39 36 38 43 42 39 39 37 34 34 33 31 28 25 24 23 22 22 22 22 21 21 21 22 22 23 24 26 27 26 25 26 27 27 26 25 26 27 26 26 26 26 25 26 28 29 29 28 27 28 30 30 30 32 33 32 31 32 31 29 29 29 28 28 30 35
29 32 34 35 36 38 38 39 40 41 42 44 46 49 52 55 55 50 46 44 41 41 43 41 40 40 37 35 35 34 32 29 26 25 24 22 22 23 23 23 22 22 23 24 26 27 28 29 27 25 25 25 25 25 26 27 27 26 26 26 26 26 27 28 28 26 25 25 26 28 29 30 32 33 33 32 30 28 27 29 31 32 34 39 43
24 26 29 31 32 34 35 37 39 40 41 42 44 46 49 52 54 48 45 46 43 39 40 42 42 40 37 35 35 34 32 30 27 26 24 22 22 23 24 25 24 24 24 25 27 28 27 25 23 22 22 23 24 25 26 27 26 26 26 25 25 26 27 27 25 22 22 24 26 27 29 30 31 32 33 32 29 26 27 30 34 36 39 41 42
20 22 24 26 28 30 32 34 37 38 39 41 42 44 47 51 52 46 43 45 41 37 40 43 42 39 37 35 35 34 33 30 28 26 24 22 22 24 25 26 27 27 25 24 27 27 24 21 21 21 21 22 24 25 26 26 26 25 25 24 24 25 26 24 24 22 22 22 25 27 29 30 31 30 29 27 25 26 29 31 34 36 35 34 35
16 18 19 21 24 26 29 31 34 35 37 39 39 41 44 47 45 40 40 43 39 35 39 43 41 38 36 34 34 34 32 30 29 27 24 23 24 26 26 28 30 28 22 21 25 24 21 20 20 20 22 24 25 26 26 25 24 24 24 23 24 26 24 21 20 22 23 23 24 26 27 27 26 25 23 22 23 26 29 31 32 32 31 30 33
12 13 16 19 22 24 26 28 31 33 34 35 36 38 41 42 38 35 39 42 38 34 38 42 40 36 34 34 34 33 31 31 30 28 26 26 26 28 28 29 31 28 23 23 24 22 19 19 20 22 23 25 26 26 25 24 23 22 22 23 24 23 19 17 17 19 23 25 24 23 23 22 21 21 21 21 23 25 27 28 29 31 32 33 35
10 12 15 19 21 22 23 26 28 30 31 32 33 36 38 37 35 33 36 39 37 35 38 41 38 35 33 33 33 31 30 29 29 29 29 29 29 30 31 31 32 29 25 23 21 19 20 21 22 23 25 25 26 25 23 22 21 21 22 23 22 18 16 18 21 22 23 24 23 21 19 19 20 21 23 24 25 25 25 26 28 31 34 38 39
12 14 16 18 19 20 22 24 27 28 29 29 31 33 35 35 33 31 33 35 34 33 36 38 35 33 32 31 31 30 28 28 29 29 30 31 32 33 31 29 29 26 21 19 19 19 21 22 23 25 25 25 25 23 21 20 20 21 21 21 19 18 18 21 23 22 22 22 21 20 20 21 22 24 26 27 27 25 25 27 30 32 35 38 40
13 14 16 17 18 19 21 23 26 27 27 27 29 33 36 36 32 30 30 31 30 30 32 32 31 30 29 29 29 27 26 29 31 29 29 30 31 30 28 26 25 21 16 16 18 20 22 23 24 25 25 24 22 20 19 20 20 20 20 19 19 20 21 21 21 21 21 20 20 21 22 23 26 27 28 28 26 26 27 28 31 33 35 37 39
13 14 15 17 18 19 20 22 24 27 27 28 30 35 39 36 29 25 25 26 26 27 27 28 28 28 26 26 25 24 24 26 28 29 30 31 30 28 28 27 23 18 15 16 19 21 22 23 24 24 23 22 20 19 19 20 20 19 18 18 19 19 19 19 19 20 20 20 22 24 25 26 27 27 26 26 26 27 29 31 33 35 35 34 35
12 12 13 14 16 18 20 21 23 25 26 28 31 36 38 32 22 17 19 20 21 23 24 25 25 23 18 15 16 18 19 19 21 24 28 29 29 28 27 22 16 14 15 18 20 21 21 22 23 23 21 20 19 19 19 19 19 18 17 17 17 18 18 18 19 19 20 22 24 26 25 25 24 25 25 26 28 30 32 34 36 35 33 32 32
11 10 10 11 13 16 18 20 22 23 24 28 33 37 35 28 18 15 17 18 19 20 20 19 17 13 9 6 6 9 10 11 13 17 19 21 23 23 20 16 14 14 17 19 20 21 21 21 21 20 19 18 18 18 18 18 17 16 16 16 17 17 18 18 19 20 22 23 24 24 23 22 22 24 27 29 31 33 34 35 34 31 30 31 31
9 9 8 8 10 14 17 18 20 21 24 29 35 35 31 24 17 14 14 15 15 15 13 11 10 7 5 3 4 5 8 9 11 13 15 17 18 17 16 15 15 16 18 20 20 20 19 19 19 18 17 17 17 17 17 16 15 15 15 16 17 17 17 18 19 21 22 22 22 22 21 22 24 26 29 31 32 33 32 31 30 28 28 30 29
8 8 7 7 9 12 15 17 18 20 24 30 32 30 26 20 15 12 12 11 11 10 9 9 8 6 4 2 3 5 7 9 11 12 13 15 16 15 15 15 15 17 19 20 19 18 18 18 18 17 17 17 16 16 15 14 13 14 15 16 17 17 17 18 19 20 21 21 21 21 22 24 27 29 31 31 30 29 29 29 28 27 28 29 29
9 8 7 7 9 11 12 15 17 20 25 29 29 25 22 19 14 10 10 9 10 11 11 8 6 5 3 2 4 7 8 9 11 12 14 15 14 14 14 14 15 17 18 18 17 17 17 17 17 17 16 15 14 14 13 13 13 14 15 16 16 17 18 19 19 19 19 19 21 23 25 27 29 29 29 28 27 26 26 27 28 28 28 29 29
9 7 6 7 8 9 11 13 16 19 24 27 27 24 23 20 13 9 8 10 11 13 11 8 6 5 3 4 6 9 11 11 12 13 14 14 13 13 13 14 15 16 17 17 17 17 17 16 16 15 14 13 13 13 13 13 13 14 14 15 16 17 17 17 17 17 18 20 23 26 27 28 27 26 26 25 24 24 24 24 26 27 26 27 28
8 6 6 7 9 10 11 13 16 19 21 24 26 26 24 19 13 9 10 12 11 10 8 6 6 5 6 6 8 11 12 13 13 14 14 13 12 11 12 14 15 15 16 17 16 16 15 14 11 10 9 8 10 12 13 13 13 13 14 15 15 16 16 16 16 17 19 22 24 25 25 24 23 23 23 23 23 23 23 23 24 24 25 27 27
7 6 6 7 9 11 12 13 15 16 18 22 26 27 23 18 13 11 12 12 10 9 7 7 7 8 10 10 11 13 14 13 13 13 13 11 11 12 13 14 15 15 16 16 14 14 13 10 7 7 6 6 8 10 11 12 12 12 13 13 14 15 15 15 16 19 21 23 23 21 21 20 20 21 22 23 24 23 22 22 22 23 25 28 26
5 6 6 6 7 9 10 10 11 14 17 21 24 25 24 20 16 13 13 12 12 11 9 9 10 11 13 13 14 15 15 15 14 13 12 11 12 13 13 14 14 15 15 14 12 11 10 8 7 7 6 7 8 9 9 10 10 11 11 12 14 15 15 16 18 21 22 20 18 17 18 18 18 20 22 23 24 23 22 21 22 22 25 28 27
4 5 5 5 6 6 7 7 9 13 16 19 23 24 23 19 16 14 13 12 13 13 12 10 11 11 12 13 14 15 15 15 14 13 13 12 13 14 13 13 13 13 12 11 9 9 8 7 7 8 7 8 9 9 8 8 9 10 11 13 15 16 16 17 19 20 18 16 15 15 16 16 17 20 21 23 24 23 22 22 21 22 24 26 26
6 5 6 6 6 6 6 7 10 13 16 19 22 24 23 19 16 13 12 13 13 13 11 10 11 11 12 14 15 15 15 15 15 14 13 12 13 13 12 11 11 10 9 7 7 7 8 8 8 8 8 7 8 8 8 8 9 11 13 14 14 15 16 18 19 17 14 13 13 14 15 16 18 19 21 22 23 23 23 23 22 22 24 25 27
6 6 7 8 7 6 6 7 10 14 17 19 19 21 23 22 15 9 9 9 10 10 9 9 10 11 12 14 15 15 15 15 15 13 12 12 12 11 10 9 8 7 6 6 6 8 8 7 8 8 8 7 7 8 8 9 11 12 13 13 13 14 16 17 15 13 11 11 12 13 15 16 17 19 21 21 22 23 24 23 23 24 24 26 28
10 10 9 8 7 6 5 6 9 12 15 15 16 19 24 21 13 10 10 9 9 8 7 7 8 10 12 15 16 16 16 15 13 12 11 11 10 9 8 7 7 7 6 6 7 8 8 6 7 8 8 7 7 8 9 11 12 12 12 12 13 15 15 13 10 9 10 10 11 13 14 15 17 19 20 21 21 22 23 23 23 23 25 26 28
11 9 8 7 7 6 5 7 10 12 13 13 14 18 21 18 14 12 10 10 9 8 8 7 8 10 13 16 17 16 15 14 12 11 10 10 9 7 6 6 6 6 6 7 8 8 7 6 7 8 8 8 9 10 10 11 11 11 11 13 13 13 11 8 8 8 9 10 11 13 14 15 17 18 19 20 20 21 22 23 22 22 24 26 26
8 6 5 5 5 6 7 9 12 13 11 11 13 16 16 14 11 10 11 10 9 8 8 8 10 12 14 16 17 16 14 12 11 10 9 8 7 5 5 5 5 5 5 6 7 7 6 6 8 8 9 9 10 11 11 11 11 11 12 12 11 9 7 6 7 7 9 10 11 13 14 15 16 18 19 19 19 20 21 22 22 21 22 24 25
9 10 10 10 9 9 10 12 13 12 11 11 11 12 11 10 10 9 8 7 7 7 8 9 12 14 16 16 16 15 13 12 11 9 7 6 4 3 3 4 5 5 5 5 6 6 6 7 8 8 9 10 11 11 12 12 12 12 12 11 8 6 5 6 7 8 9 10 11 13 14 15 16 17 18 18 19 19 20 21 22 21 21 22 25
12 13 12 10 10 11 11 11 11 11 10 11 11 10 10 9 8 6 6 6 7 8 10 12 14 16 17 16 16 15 13 11 9 7 5 4 3 3 3 4 5 6 5 6 6 6 7 8 9 9 10 10 11 11 12 12 12 11 10 7 5 4 5 6 6 7 9 10 11 13 14 15 16 17 18 18 18 18 19 19 21 21 21 21 24
11 11 12 12 12 12 11 11 11 10 10 10 9 8 7 6 5 6 7 7 8 9 11 12 14 15 16 16 15 14 12 10 8 7 6 5 4 4 4 5 6 7 7 7 7 6 7 8 9 9 9 10 10 11 12 12 10 9 6 4 3 4 4 5 6 7 8 10 11 12 13 15 16 16 17 17 17 17 19 19 20 20 20 20 22
14 13 13 11 10 9 8 8 8 8 8 7 6 5 5 5 5 7 7 8 8 9 10 11 11 12 13 14 13 11 10 9 9 9 8 7 6 6 6 7 8 8 8 8 7 7 8 8 8 9 9 9 10 11 11 9 7 5 4 2 2 3 5 5 6 7 8 9 11 12 13 14 15 16 17 17 17 17 18 19 18 19 19 19 20
11 9 7 6 5 6 6 7 7 7 6 5 4 3 4 4 5 6 7 7 7 7 8 9 9 10 12 13 12 11 11 11 11 11 10 9 8 8 8 9 9 9 8 8 8 8 8 8 8 8 8 8 9 10 9 7 5 3 2 2 3 4 5 6 7 8 9 9 11 12 13 14 14 16 16 16 17 18 18 18 18 18 18 18 18
6 4 4 4 5 5 6 5 5 4 3 2 2 3 4 5 6 7 7 7 8 7 8 8 9 10 12 14 14 13 12 12 12 12 12 11 10 9 9 10 10 9 9 8 8 8 8 8 8 8 8 8 9 8 6 5 4 3 2 2 3 4 5 6 7 8 9 10 11 12 13 13 14 15 15 15 16 17 18 18 18 18 17 17 18
4 4 5 6 6 5 4 3 2 2 3 4 5 6 6 7 8 8 8 7 8 8 8 9 10 11 13 15 16 15 14 12 13 14 14 12 11 10 10 10 9 9 8 8 8 8 8 8 8 8 8 9 8 7 5 4 3 3 2 3 4 5 5 6 7 8 9 11 11 12 13 13 13 13 14 15 15 17 18 18 17 17 17 17 18
5 5 5 5 5 4 3 3 5 6 6 6 6 6 6 7 7 7 7 7 8 8 8 8 10 11 13 13 14 15 14 13 14 15 15 13 12 10 9 9 9 8 8 8 8 8 8 8 8 8 8 8 7 6 5 4 3 3 3 4 5 6 6 7 8 9 10 11 11 12 12 12 12 12 13 14 15 16 17 17 17 17 17 17 18
6 5 4 4 4 4 4 5 5 5 4 4 4 4 4 4 4 5 6 7 7 6 6 7 8 10 12 12 13 13 13 13 14 15 14 13 12 11 10 9 8 8 8 8 8 8 9 9 8 8 8 8 7 6 5 4 4 4 4 5 6 6 7 8 8 9 10 10 11 11 12 11 10 11 11 12 13 14 15 16 16 16 16 16 16
5 3 3 3 3 3 3 2 2 2 1 1 1 1 2 3 3 4 6 6 6 5 5 6 7 8 10 11 12 13 13 13 13 13 12 12 11 11 9 8 7 7 7 8 9 9 9 9 8 8 8 7 6 6 5 4 4 4 5 6 7 7 8 9 9 9 10 10 10 10 10 10 9 9 10 11 12 13 14 14 15 15 15 15 14
3 2 2 2 2 2 3 3 3 2 2 1 0 1 2 3 4 4 5 5 5 5 5 6 6 7 8 10 11 12 13 13 12 12 12 12 11 10 9 7 6 6 7 8 9 10 9 9 8 7 7 7 6 6 5 5 5 5 6 7 8 8 9 9 10 10 10 9 9 9 9 8 7 7 9 10 11 12 13 13 13 14 15 15 14
3 3 3 4 4 5 5 4 3 2 1 0 1 2 4 4 5 5 6 6 6 6 6 7 7 7 8 9 10 11 12 11 11 11 11 11 11 10 9 7 6 7 8 9 9 10 9 9 8 7 7 7 6 6 5 5 5 6 6 7 8 9 10 10 10 10 9 8 7 8 7 7 6 6 7 9 10 10 11 12 13 13 14 14 14
3 4 5 6 6 6 5 4 2 1 1 2 3 4 6 7 7 7 8 9 9 9 9 9 9 9 10 10 10 11 11 11 10 10 11 11 11 11 10 8 8 8 8 8 9 10 10 9 9 8 7 7 7 6 5 5 5 6 7 8 9 10 10 11 10 8 8 7 6 6 6 6 5 4 6 8 9 9 9 11 12 12 13 14 14
6 7 7 6 5 5 4 3 2 1 0 1 2 3 5 6 7 8 10 11 12 12 13 14 14 13 12 12 11 12 12 12 11 11 12 12 12 12 11 10 9 9 9 9 10 10 10 10 9 8 8 8 7 7 6 6 6 6 7 8 9 10 10 10 8 7 6 6 5 5 5 5 4 3 4 6 7 8 9 10 11 12 12 12 12
Wind_Direction
230 230 228 227 227 228 228 228 227 227 228 228 227 227 230 232 234 236 238 241 244 244 244 247 247 242 237 235 236 235 236 237 240 245 248 247 247 249 252 250 248 251 255 263 270 275 280 284 286 289 290 290 293 298 299 298 296 294 294 294 294 292 291 289 288 293 299 302 302 305 311 314 312 313 313 311 311 310 308 304 300 296 295 295 297
231 230 229 228 228 229 229 229 228 228 229 228 226 225 228 230 231 232 235 240 243 244 244 245 243 239 235 234 234 234 235 236 237 242 244 244 245 248 247 244 245 253 261 268 274 278 281 286 289 289 287 291 301 305 305 304 301 299 298 296 296 295 293 292 292 292 296 300 302 304 308 308 308 312 313 309 309 309 308 306 303 299 297 296 296
233 233 232 230 230 231 231 231 232 232 231 230 228 227 229 230 230 230 233 238 240 241 243 245 242 238 234 234 233 232 234 235 236 240 243 244 246 246 243 243 249 258 266 271 275 278 283 288 290 288 290 298 306 308 307 306 304 301 300 298 297 297 297 296 295 294 295 299 301 303 305 303 302 308 309 307 308 309 308 307 304 301 299 297 296
236 236 236 233 233 236 234 231 231 232 232 232 231 230 229 228 228 227 228 229 231 235 239 243 244 240 236 233 231 231 234 235 237 241 245 246 246 245 244 247 254 262 269 272 274 278 283 287 288 288 294 302 308 309 307 305 304 302 301 300 298 298 299 298 297 297 295 296 300 302 304 302 301 303 306 307 310 311 310 308 306 304 301 298 297
237 238 238 234 232 234 233 230 230 231 233 233 232 230 229 227 226 223 220 221 225 232 242 245 243 242 240 235 231 232 233 235 238 242 246 247 247 247 249 254 260 265 269 271 274 278 281 284 287 290 297 304 308 309 308 307 306 305 303 302 300 298 298 297 297 298 296 295 298 300 302 301 299 300 302 305 309 310 309 308 308 307 304 301 300
239 239 237 234 233 233 229 229 230 230 231 232 231 230 228 226 224 220 218 219 223 236 251 252 246 243 243 237 233 234 234 235 238 242 245 247 248 250 254 259 262 264 267 270 272 276 279 283 287 292 298 303 307 310 311 311 309 307 305 302 300 298 296 297 298 298 296 295 296 299 301 300 298 298 301 304 305 306 306 306 306 305 303 303 303
241 240 236 235 239 237 231 229 230 229 229 229 231 232 229 226 225 221 218 218 221 233 247 251 246 242 242 238 235 235 236 237 239 241 245 247 250 254 258 261 263 263 265 267 270 274 280 284 287 292 297 301 305 309 311 310 308 306 304 303 302 299 297 297 298 297 296 295 296 298 300 300 298 297 301 305 305 304 306 305 303 300 300 301 303
243 241 236 237 242 242 238 235 231 230 230 230 231 232 230 227 225 223 220 216 221 234 243 246 246 243 240 239 237 236 236 238 240 242 246 249 253 257 259 260 262 264 265 267 271 276 279 281 284 289 294 299 304 307 308 308 305 304 305 305 304 301 298 297 297 295 294 294 295 298 299 300 298 298 303 306 303 304 305 303 300 300 300 300 300
244 242 239 241 245 246 245 240 234 232 233 231 230 232 230 224 222 224 220 215 227 241 241 240 244 242 238 239 239 236 236 238 240 242 246 251 255 256 257 258 260 263 266 268 272 276 277 278 280 284 291 298 303 306 306 305 303 303 305 306 304 302 299 296 295 294 294 294 295 297 298 298 298 300 303 303 301 302 303 301 299 299 300 300 297
245 243 243 244 246 248 248 244 238 234 231 228 227 230 229 224 223 223 216 216 233 244 238 237 241 238 235 237 238 236 236 237 239 242 246 250 253 252 252 253 256 259 263 267 271 275 275 274 276 280 287 295 300 302 303 302 302 301 302 304 303 301 298 295 293 291 292 293 294 296 296 296 297 299 300 301 302 302 302 301 300 300 301 301 298
245 245 246 246 247 249 249 247 242 235 229 226 227 228 228 227 223 214 208 217 235 241 241 243 241 236 234 235 237 237 236 237 238 240 244 247 249 249 249 251 254 256 261 266 271 274 274 273 275 280 286 291 295 298 300 301 301 299 300 302 303 301 297 294 291 289 290 291 292 293 293 294 296 298 300 302 302 301 302 301 300 300 300 300 300
247 247 248 248 248 249 250 249 245 236 230 229 228 225 225 228 226 215 208 219 231 237 243 245 239 235 234 234 236 238 236 236 238 240 242 244 245 248 250 252 255 258 263 268 272 275 276 274 274 278 283 287 290 294 297 299 299 298 298 301 303 301 297 294 290 289 289 289 290 292 293 293 295 298 301 302 301 302 302 300 299 298 297 297 298
249 249 249 249 249 250 251 250 246 238 232 231 229 225 222 224 227 223 219 221 225 230 238 239 233 232 233 232 235 238 238 238 238 239 242 244 245 247 250 253 258 262 267 271 274 277 278 277 277 279 281 283 287 291 294 296 296 296 298 301 302 300 297 294 291 289 289 288 288 291 293 293 295 299 301 301 302 304 302 299 299 298 296 298 299
250 249 249 249 250 251 252 251 247 240 234 231 231 231 227 223 224 225 222 220 223 229 234 233 229 230 232 233 235 238 240 239 239 240 243 244 246 247 250 254 258 263 269 273 276 278 280 281 283 284 284 284 286 288 291 294 295 296 298 300 300 299 298 296 294 294 294 293 292 293 294 295 297 300 302 303 302 301 300 300 302 302 302 304 304
251 250 249 250 252 253 253 251 247 241 236 234 234 235 232 226 226 229 224 218 223 231 231 228 228 230 232 233 235 238 241 241 241 242 243 246 248 250 253 255 258 263 268 273 278 281 283 283 283 284 285 285 286 288 291 293 295 296 297 297 297 297 296 293 293 294 295 294 294 295 296 297 298 300 302 302 300 299 301 303 305 307 308 308 307
251 251 250 251 253 254 253 249 245 243 239 237 236 236 234 231 231 234 230 222 225 233 228 224 227 230 232 235 237 239 241 242 242 243 245 248 250 253 256 260 263 265 266 272 279 282 282 280 280 283 285 286 286 288 291 292 293 294 294 296 297 297 295 295 296 296 294 292 293 294 295 295 296 298 299 298 297 301 305 305 307 311 311 308 306
254 252 252 253 252 252 252 248 245 244 241 240 241 240 239 235 232 234 232 226 229 234 228 224 227 230 233 237 239 241 244 246 247 249 250 251 254 259 264 268 269 265 265 275 281 280 277 277 280 283 284 285 286 288 290 291 291 292 293 296 298 297 297 298 298 299 299 297 295 295 295 296 297 295 294 295 299 306 309 307 310 314 312 307 306
258 253 251 251 249 250 251 248 246 244 243 246 246 243 239 234 231 234 232 229 233 237 231 227 229 231 235 240 243 245 248 250 253 255 255 256 259 263 267 270 268 267 273 281 279 274 275 278 281 283 283 284 286 288 289 289 288 290 294 298 298 297 297 297 296 300 304 304 302 301 300 301 300 297 297 300 304 308 307 308 313 316 314 311 309
254 249 247 247 249 250 249 247 246 244 246 249 247 242 238 232 231 238 237 233 237 240 232 229 231 233 238 242 244 248 251 253 257 261 261 261 262 264 266 266 264 268 280 282 272 268 275 279 281 282 281 282 285 286 287 286 287 292 297 298 297 295 294 296 300 304 306 307 308 308 307 308 307 305 306 307 308 307 305 309 316 318 315 313 311
249 249 247 248 250 249 247 246 244 243 247 249 244 238 233 229 233 241 240 236 238 238 233 232 235 238 242 246 250 254 257 257 260 264 266 266 266 267 267 265 266 271 274 267 263 268 275 279 281 281 280 282 284 284 284 285 290 296 298 297 295 293 294 298 303 306 307 307 308 309 311 312 311 310 309 309 309 308 308 312 316 317 314 311 310
248 248 248 250 250 248 247 245 243 243 245 244 237 230 224 226 236 243 240 238 238 236 234 236 239 243 247 251 256 259 261 261 262 266 269 270 268 266 262 265 273 276 263 253 261 270 275 279 281 280 280 281 282 282 284 289 295 298 297 295 292 292 298 303 306 308 308 307 307 311 314 315 312 311 310 310 309 308 309 310 312 314 312 309 308
249 250 251 252 252 249 247 244 242 241 240 236 231 223 220 227 241 245 238 236 236 235 236 238 242 248 253 258 263 267 268 268 267 266 266 266 265 266 267 269 271 264 254 259 268 273 277 279 278 277 278 280 281 283 288 293 297 297 293 291 292 298 305 308 308 308 308 309 312 315 317 316 314 313 312 311 310 309 309 309 309 310 309 306 307
253 257 259 257 254 251 249 245 242 239 236 232 226 219 221 232 243 238 231 234 234 235 237 239 244 252 257 264 272 270 267 266 265 264 264 261 260 264 267 265 257 251 262 273 275 277 280 278 275 275 276 278 281 287 292 296 296 294 292 295 301 307 310 310 310 310 310 312 314 315 317 317 316 316 315 315 314 313 312 310 310 310 307 305 308
257 262 268 265 257 251 246 242 239 237 234 227 216 212 222 238 241 227 230 235 233 235 239 238 241 246 250 259 267 264 265 265 259 258 258 254 253 253 252 249 252 265 276 278 277 279 278 274 273 275 276 280 285 290 293 294 292 293 298 303 307 310 310 311 311 311 311 313 314 315 317 319 318 318 318 318 317 316 315 313 312 311 309 309 311
257 261 266 264 251 244 240 237 235 235 230 218 207 209 223 235 230 220 224 224 224 229 229 223 222 229 243 269 282 284 287 278 261 252 247 243 240 238 238 248 263 274 278 278 278 277 274 272 273 275 277 283 288 290 290 291 293 299 304 306 308 310 311 311 310 311 314 315 315 316 319 320 320 320 319 319 319 318 318 317 314 313 314 315 314
259 258 255 247 236 232 231 231 230 229 222 212 206 213 224 222 210 204 205 206 213 212 200 201 215 227 234 258 281 283 274 260 253 247 237 229 227 230 242 258 271 277 279 278 275 274 273 273 273 275 280 286 288 289 291 294 299 303 306 308 310 311 311 310 312 315 316 316 317 320 321 321 320 319 319 320 322 323 322 321 318 318 320 321 319
259 251 237 227 221 218 220 223 221 220 217 211 211 219 220 205 195 201 204 207 208 195 184 187 201 208 207 226 269 275 266 249 237 225 218 220 230 242 256 270 277 278 278 276 274 274 274 274 275 278 284 288 288 290 293 297 303 307 308 310 310 308 310 312 315 317 317 318 321 323 323 322 321 321 323 325 326 327 327 326 323 323 325 326 326
247 230 212 208 207 206 211 215 214 214 215 213 216 221 213 201 204 216 203 194 191 183 177 173 172 188 238 271 264 261 256 244 231 223 226 235 245 254 268 277 279 278 277 276 276 276 275 277 280 283 286 288 288 291 295 301 307 309 309 308 306 307 310 314 316 318 319 321 324 324 323 324 324 326 329 330 330 331 331 330 328 326 327 330 331
223 207 197 193 190 192 200 206 208 211 213 214 220 223 213 205 216 217 188 180 180 176 179 187 191 224 272 271 252 248 247 243 237 235 238 243 252 266 278 281 280 279 276 275 274 275 277 279 278 276 277 280 285 292 299 305 309 308 304 302 303 308 313 315 316 319 321 323 324 324 324 326 329 333 336 337 336 336 336 334 333 331 331 333 334
204 198 195 187 183 187 192 194 197 203 209 217 225 222 208 205 222 216 191 184 181 177 192 211 224 251 266 256 243 242 243 238 233 234 239 248 264 277 282 281 280 276 272 271 271 273 276 273 258 253 259 263 273 285 294 300 303 302 300 300 303 310 315 316 316 319 321 322 324 325 328 331 336 341 345 344 341 340 339 340 340 338 337 336 335
198 189 187 183 179 180 182 183 190 198 206 219 226 218 205 206 216 210 197 196 197 203 219 225 227 239 245 239 236 238 237 231 227 233 246 259 272 282 283 281 276 269 265 268 269 269 271 261 246 249 256 257 266 277 285 292 295 296 299 304 309 313 315 315 317 320 322 324 326 329 333 338 343 348 350 347 345 343 343 345 346 342 339 339 338
176 160 160 165 163 164 171 182 196 203 208 216 221 217 210 207 203 199 206 219 224 230 236 228 220 224 228 230 234 235 232 231 232 239 251 265 277 285 284 277 269 263 264 268 266 264 264 255 249 258 262 260 267 277 283 289 293 295 300 306 309 312 313 315 318 321 324 327 331 335 339 343 346 350 350 349 349 349 348 350 351 346 341 342 343
159 138 124 126 136 154 176 195 209 216 217 216 216 217 217 210 200 204 225 237 234 232 228 218 217 225 230 234 237 234 231 234 238 243 255 269 279 283 281 273 266 263 264 266 262 263 265 259 254 261 264 263 270 279 284 287 292 298 303 305 307 309 312 316 320 325 329 333 337 341 344 345 348 349 350 350 352 353 354 355 355 351 347 346 348
150 130 120 121 130 147 175 202 217 223 222 218 219 220 214 204 202 228 256 249 234 227 223 222 229 236 237 237 237 236 236 238 241 248 261 274 281 284 280 272 265 262 264 263 256 257 261 258 254 261 269 269 271 278 284 290 296 301 305 306 308 311 315 320 325 330 333 337 342 345 346 347 349 349 349 351 353 355 358 359 358 356 353 350 350
135 126 124 129 138 149 168 198 215 219 216 214 215 211 203 203 225 265 265 243 230 225 226 235 243 245 242 240 239 239 238 238 243 254 267 276 282 283 275 265 264 267 268 265 256 254 253 248 250 263 273 275 276 280 286 293 300 304 305 308 312 315 318 324 330 334 337 341 346 349 348 349 350 351 351 353 354 356 360 0 359 360 358 353 352
135 132 132 142 159 174 187 197 199 198 196 198 202 204 208 223 249 254 229 213 209 206 212 229 242 245 244 242 241 240 238 239 246 258 269 274 277 274 262 257 262 265 264 262 257 254 249 246 254 268 276 279 283 287 291 297 301 302 303 309 314 316 320 329 335 337 342 347 350 353 353 352 352 352 353 354 355 357 359 360 360 2 2 358 357
160 174 188 200 206 204 202 199 194 194 200 208 212 213 217 224 224 206 193 194 199 203 214 229 240 245 247 246 243 240 237 241 249 258 264 265 263 256 247 246 249 248 245 249 252 249 246 252 264 274 281 285 288 291 296 299 300 300 304 311 315 316 323 335 340 343 350 355 357 357 356 353 353 354 355 356 357 358 359 1 1 2 4 3 2
210 224 236 242 233 213 206 208 210 211 213 210 202 196 192 187 182 181 187 196 203 216 231 240 245 252 254 251 244 237 236 242 248 251 250 248 244 243 247 257 260 251 234 235 246 247 246 258 272 280 285 289 290 293 296 298 298 300 306 310 313 320 334 343 346 349 354 358 1 360 357 356 356 356 356 359 359 357 359 2 2 2 3 5 4
234 229 223 213 198 188 187 189 191 187 181 175 172 172 173 176 182 193 205 214 222 233 243 248 252 256 255 247 239 234 235 238 236 232 228 225 228 243 264 275 276 267 251 248 255 254 253 264 277 283 286 289 291 292 294 296 297 299 303 304 309 327 342 346 348 350 354 358 1 360 357 358 359 358 359 0 360 358 360 2 3 3 3 3 3
202 185 170 160 158 159 158 157 159 162 164 168 173 178 181 187 199 215 224 231 236 241 245 249 253 253 249 241 236 235 235 229 220 216 216 219 229 251 270 276 275 270 264 263 262 260 263 273 282 287 288 290 292 295 297 298 296 294 292 292 306 328 338 340 342 347 353 357 359 358 358 358 0 1 1 0 0 2 3 2 2 3 4 4 3
156 150 147 149 154 157 157 158 163 168 170 172 175 178 185 198 214 224 231 236 240 242 244 244 244 242 240 236 232 230 225 217 214 215 218 224 241 259 272 279 279 272 266 266 268 268 271 279 287 291 291 292 296 300 301 297 291 282 275 281 308 326 333 335 337 342 350 354 357 358 357 358 1 2 0 0 3 6 6 3 1 3 6 7 8
146 144 146 152 157 156 156 158 159 160 162 165 172 186 203 215 224 231 238 246 250 250 249 247 243 239 236 232 227 222 220 218 219 223 228 236 250 264 275 285 287 277 264 261 267 271 275 282 287 288 288 292 297 300 298 290 279 264 257 280 307 319 326 331 332 336 345 351 354 355 354 354 358 1 360 1 6 8 8 7 6 5 6 9 10
169 164 155 154 154 150 149 150 149 151 162 186 224 243 248 249 251 253 256 259 258 253 247 246 244 240 235 229 223 220 224 228 229 233 238 242 249 263 277 286 288 279 265 257 260 266 272 277 279 281 287 293 296 295 288 275 260 250 255 282 305 311 318 323 326 331 340 344 345 347 348 349 354 359 0 2 7 10 10 10 10 8 8 10 11
174 161 154 158 162 163 164 171 199 255 274 279 277 272 267 265 265 266 265 262 257 250 243 243 243 241 238 233 225 221 226 233 237 239 242 243 248 261 274 280 281 275 263 256 257 260 262 264 267 273 284 291 290 285 274 260 251 256 271 282 294 303 308 314 321 327 331 333 334 337 339 342 349 357 1 4 8 11 12 12 13 13 12 12 13
158 156 160 168 181 200 228 257 274 278 276 273 270 267 266 268 269 269 266 262 257 252 249 249 247 243 241 241 236 229 229 236 242 244 243 242 247 258 268 274 276 272 262 257 257 254 253 256 262 270 281 286 282 272 262 257 255 266 279 283 290 297 301 308 316 321 321 322 325 327 330 336 346 354 1 8 11 11 11 13 15 16 16 15 14
175 173 185 202 223 247 262 268 269 264 259 261 262 264 270 272 270 267 265 262 260 256 253 254 252 245 241 243 244 240 236 239 246 249 246 243 249 259 267 273 276 273 266 259 254 248 247 253 260 267 275 279 274 262 256 259 266 273 279 284 288 295 300 303 308 311 312 313 316 318 322 331 343 353 2 11 15 12 12 15 18 20 20 17 14
191 199 214 221 233 243 240 231 223 216 217 231 242 265 279 278 272 266 262 261 261 259 256 256 255 249 244 243 245 245 242 241 245 248 245 243 249 258 266 272 278 278 272 262 251 244 245 250 254 261 270 274 270 262 256 260 270 275 281 287 290 293 298 299 299 300 302 304 306 309 315 326 340 352 4 13 17 16 13 14 18 21 23 20 14
195 196 194 186 175 166 154 144 137 131 122 105 13 311 297 283 270 261 256 256 258 259 258 258 260 257 254 250 248 247 244 240 237 236 236 240 248 255 261 270 282 286 279 264 248 238 239 242 244 253 268 275 272 263 255 260 272 278 283 290 294 295 295 295 293 291 291 293 296 300 308 322 337 350 3 14 20 19 16 13 16 20 23 24 22
167 166 164 155 145 139 133 129 130 134 143 260 278 279 277 273 267 261 258 259 259 256 255 260 266 268 267 262 253 245 239 234 231 229 230 236 244 249 253 265 283 290 283 265 242 228 227 232 237 250 269 278 274 265 258 261 273 282 287 293 297 297 296 295 290 284 280 280 285 293 302 316 332 346 2 14 21 22 18 16 18 21 22 26 30
170 160 149 142 137 134 133 135 144 171 234 254 257 264 270 271 269 267 266 265 265 263 260 258 258 261 266 266 256 242 232 227 226 226 229 235 242 246 251 264 280 285 278 258 233 219 220 229 237 251 269 278 274 265 258 261 271 281 289 295 298 298 298 296 289 277 267 264 269 281 292 305 321 341 0 13 20 23 22 22 24 23 21 25 33
158 151 145 140 136 137 138 134 131 127 59 296 275 274 274 273 274 276 277 276 276 274 268 263 257 254 254 256 252 243 235 231 227 227 232 238 245 248 254 265 276 280 272 252 230 221 225 236 243 252 266 276 274 264 256 259 270 281 290 297 299 300 300 298 287 266 248 244 251 264 277 289 304 329 355 11 20 24 25 28 30 28 23 24 32
Height
1513 1515 1517 1518 1520 1522 1525 1528 1530 1532 1533 1535 1536 1537 1537 1538 1539 1541 1542 1543 1544 1545 1546 1547 1549 1551 1552 1553 1554 1554 1555 1555 1556 1556 1556 1556 1557 1557 1557 1557 1557 1557 1557 1557 1556 1556 1555 1555 1555 1555 1555 1555 1555 1555 1555 1554 1553 1552 1552 1551 1550 1550 1549 1548 1546 1543 1541 1540 1539 1538 1536 1535 1533 1532 1530 1528 1527 1526 1524 1523 1522 1520 1519 1518 1516
1509 1510 1512 1515 1517 1519 1523 1526 1528 1530 1531 1532 1533 1533 1534 1536 1537 1538 1540 1541 1543 1544 1544 1546 1547 1548 1549 1550 1551 1552 1553 1553 1554 1553 1553 1554 1554 1555 1556 1556 1556 1556 1555 1555 1555 1554 1553 1553 1553 1553 1553 1553 1553 1553 1552 1552 1551 1550 1549 1549 1548 1547 1547 1545 1544 1541 1538 1537 1536 1535 1534 1532 1530 1529 1528 1526 1524 1523 1521 1520 1519 1517 1516 1515 1512
1504 1506 1508 1512 1514 1517 1522 1525 1526 1527 1528 1529 1531 1532 1533 1535 1536 1537 1538 1540 1542 1543 1544 1544 1545 1546 1547 1548 1549 1550 1550 1551 1551 1551 1551 1552 1553 1553 1554 1554 1554 1554 1554 1553 1553 1552 1552 1551 1551 1551 1551 1551 1551 1551 1550 1550 1549 1548 1547 1546 1545 1544 1544 1543 1541 1539 1536 1534 1533 1532 1531 1529 1527 1526 1525 1523 1522 1520 1518 1516 1515 1514 1512 1511 1509
1500 1502 1505 1509 1513 1517 1521 1522 1521 1522 1524 1526 1529 1530 1531 1533 1534 1534 1536 1538 1540 1542 1543 1543 1544 1545 1545 1546 1547 1547 1548 1548 1549 1549 1550 1550 1551 1551 1552 1552 1552 1552 1552 1551 1551 1550 1550 1550 1550 1550 1549 1549 1549 1549 1548 1547 1546 1545 1545 1544 1543 1542 1541 1540 1538 1536 1534 1532 1530 1529 1527 1526 1524 1523 1522 1520 1518 1517 1515 1513 1511 1510 1508 1507 1505
1496 1499 1503 1506 1511 1516 1518 1517 1516 1518 1521 1523 1526 1527 1528 1529 1530 1531 1533 1536 1538 1540 1542 1543 1544 1544 1544 1544 1545 1545 1546 1546 1547 1547 1548 1548 1549 1549 1550 1550 1550 1550 1550 1549 1549 1548 1548 1548 1548 1548 1548 1547 1547 1547 1546 1545 1544 1543 1542 1541 1540 1539 1538 1536 1535 1533 1532 1530 1528 1526 1524 1523 1521 1520 1518 1517 1515 1513 1511 1509 1507 1505 1503 1502 1500
1492 1496 1499 1501 1503 1508 1510 1509 1511 1514 1516 1518 1520 1522 1523 1525 1528 1529 1530 1532 1535 1537 1539 1541 1542 1543 1543 1543 1543 1543 1544 1544 1544 1545 1546 1546 1547 1547 1548 1548 1548 1548 1547 1547 1547 1546 1546 1546 1546 1546 1546 1546 1545 1545 1544 1543 1542 1541 1540 1539 1537 1536 1534 1533 1532 1530 1529 1527 1525 1523 1522 1520 1518 1516 1515 1514 1511 1509 1507 1505 1503 1502 1500 1497 1496
1488 1492 1495 1494 1496 1500 1503 1505 1507 1510 1511 1512 1515 1517 1520 1523 1525 1527 1527 1529 1531 1533 1535 1538 1539 1540 1541 1541 1541 1542 1542 1542 1542 1543 1544 1544 1544 1545 1545 1545 1545 1545 1545 1544 1544 1544 1544 1544 1544 1544 1544 1544 1543 1543 1542 1541 1540 1539 1537 1536 1534 1533 1531 1530 1529 1528 1526 1525 1523 1521 1519 1517 1515 1513 1512 1511 1509 1507 1504 1502 1500 1499 1497 1494 1492
1485 1488 1490 1490 1491 1493 1497 1500 1503 1505 1507 1509 1511 1514 1518 1520 1522 1525 1526 1526 1527 1530 1532 1535 1536 1538 1540 1540 1540 1540 1540 1540 1540 1541 1541 1542 1542 1543 1543 1543 1543 1542 1542 1542 1542 1542 1542 1542 1542 1541 1541 1541 1541 1540 1540 1539 1538 1536 1535 1533 1532 1530 1528 1527 1526 1525 1523 1522 1520 1518 1516 1514 1512 1511 1509 1508 1506 1504 1503 1500 1496 1495 1494 1492 1489
1481 1484 1486 1486 1486 1488 1491 1495 1498 1500 1503 1505 1509 1514 1517 1518 1520 1524 1526 1525 1525 1527 1530 1533 1534 1535 1537 1537 1538 1538 1537 1537 1538 1538 1539 1540 1540 1540 1540 1540 1540 1540 1540 1540 1539 1539 1539 1539 1539 1539 1538 1538 1538 1538 1537 1536 1535 1534 1532 1531 1529 1527 1526 1524 1523 1522 1521 1519 1517 1515 1514 1511 1510 1508 1507 1505 1503 1501 1499 1497 1493 1491 1489 1487 1485
1478 1480 1481 1481 1482 1484 1486 1490 1494 1497 1498 1502 1510 1515 1516 1516 1517 1520 1523 1523 1524 1525 1528 1530 1530 1531 1533 1534 1534 1535 1534 1534 1535 1535 1536 1537 1538 1538 1538 1538 1538 1538 1538 1537 1537 1537 1537 1536 1536 1535 1535 1535 1535 1534 1534 1533 1532 1531 1530 1528 1527 1525 1523 1522 1520 1519 1518 1516 1514 1513 1511 1508 1507 1506 1504 1502 1500 1498 1496 1494 1490 1487 1485 1481 1478
1474 1476 1477 1478 1479 1481 1484 1486 1490 1494 1494 1498 1505 1508 1510 1511 1511 1514 1519 1521 1522 1524 1526 1526 1527 1527 1529 1530 1530 1531 1530 1531 1532 1533 1534 1535 1535 1536 1536 1536 1536 1536 1535 1535 1534 1534 1534 1533 1533 1533 1533 1532 1531 1531 1531 1530 1529 1528 1527 1525 1524 1522 1520 1519 1518 1516 1515 1513 1511 1510 1507 1505 1504 1503 1501 1499 1497 1495 1492 1490 1487 1484 1481 1477 1473
1472 1473 1474 1475 1477 1478 1481 1483 1486 1490 1491 1492 1496 1499 1502 1506 1507 1510 1515 1516 1517 1522 1523 1521 1523 1524 1525 1526 1526 1527 1527 1528 1529 1530 1531 1532 1533 1533 1533 1534 1533 1533 1532 1532 1531 1531 1530 1530 1531 1531 1530 1529 1529 1528 1527 1527 1526 1525 1523 1522 1521 1520 1518 1516 1515 1513 1511 1510 1507 1506 1504 1502 1500 1499 1498 1495 1493 1491 1489 1487 1484 1481 1478 1475 1470
1468 1470 1471 1473 1474 1475 1478 1480 1483 1486 1488 1489 1492 1493 1495 1499 1502 1506 1510 1510 1512 1516 1517 1517 1519 1520 1520 1521 1522 1523 1524 1525 1526 1527 1528 1529 1530 1531 1531 1531 1530 1530 1530 1529 1529 1528 1528 1527 1528 1527 1527 1526 1525 1525 1524 1523 1523 1521 1520 1519 1518 1516 1515 1513 1512 1510 1508 1506 1503 1502 1501 1499 1496 1495 1494 1492 1489 1487 1485 1482 1481 1478 1474 1472 1467
1465 1466 1468 1469 1471 1473 1475 1478 1480 1483 1485 1487 1489 1489 1490 1492 1495 1499 1503 1505 1507 1509 1511 1513 1514 1515 1516 1517 1518 1519 1520 1522 1524 1525 1525 1526 1527 1528 1528 1528 1528 1527 1527 1527 1526 1526 1525 1525 1524 1524 1524 1523 1522 1521 1521 1520 1519 1518 1517 1516 1515 1513 1511 1509 1508 1506 1504 1503 1500 1498 1497 1496 1493 1491 1490 1489 1486 1484 1481 1478 1476 1473 1469 1466 1462
1462 1463 1465 1466 1468 1470 1472 1475 1477 1480 1482 1484 1485 1486 1487 1488 1490 1493 1497 1500 1502 1504 1507 1509 1509 1511 1513 1514 1516 1516 1517 1519 1521 1522 1523 1524 1525 1525 1525 1525 1525 1525 1525 1524 1523 1523 1522 1521 1521 1520 1520 1519 1519 1518 1518 1517 1516 1515 1514 1513 1511 1510 1508 1506 1504 1503 1501 1500 1498 1496 1494 1492 1490 1488 1487 1485 1483 1480 1478 1475 1472 1469 1465 1461 1457
1459 1460 1462 1463 1465 1467 1469 1472 1474 1476 1479 1481 1482 1483 1483 1483 1485 1490 1493 1496 1499 1501 1503 1504 1505 1508 1510 1512 1513 1514 1514 1516 1519 1520 1521 1523 1523 1523 1523 1523 1523 1522 1522 1521 1521 1520 1519 1518 1517 1517 1517 1516 1516 1515 1514 1513 1513 1512 1511 1509 1508 1507 1505 1503 1501 1499 1498 1497 1495 1493 1491 1489 1488 1486 1484 1482 1480 1477 1474 1471 1468 1466 1462 1457 1453
1457 1458 1459 1460 1462 1464 1467 1469 1472 1474 1476 1478 1479 1479 1479 1481 1484 1488 1490 1492 1495 1497 1499 1500 1502 1504 1507 1509 1511 1511 1513 1515 1517 1519 1520 1521 1521 1520 1521 1521 1520 1518 1519 1519 1518 1517 1516 1515 1514 1514 1513 1513 1512 1512 1511 1510 1509 1508 1507 1506 1504 1503 1501 1500 1498 1495 1493 1492 1491 1490 1488 1486 1484 1483 1481 1479 1477 1474 1470 1467 1465 1463 1459 1454 1449
1455 1456 1457 1459 1460 1462 1465 1467 1469 1471 1473 1474 1475 1476 1477 1479 1483 1485 1487 1489 1492 1494 1496 1497 1499 1502 1504 1507 1508 1509 1512 1514 1515 1517 1518 1518 1518 1518 1517 1517 1514 1514 1517 1517 1515 1515 1514 1512 1511 1511 1510 1509 1509 1508 1508 1507 1506 1505 1503 1502 1501 1499 1498 1497 1495 1492 1490 1488 1487 1486 1484 1483 1481 1479 1478 1476 1474 1471 1468 1464 1462 1459 1455 1451 1446
1453 1454 1456 1457 1459 1460 1463 1465 1466 1468 1470 1471 1472 1474 1475 1478 1481 1483 1485 1487 1490 1491 1492 1494 1496 1499 1501 1504 1506 1508 1511 1512 1514 1515 1515 1516 1515 1514 1513 1512 1510 1511 1513 1513 1512 1512 1511 1509 1508 1507 1506 1506 1505 1505 1504 1504 1503 1501 1500 1499 1497 1496 1495 1493 1491 1489 1487 1485 1483 1482 1481 1480 1478 1476 1474 1472 1471 1468 1465 1462 1459 1456 1451 1447 1443
1452 1453 1454 1455 1457 1459 1460 1462 1463 1465 1466 1468 1470 1472 1474 1477 1480 1481 1483 1485 1487 1488 1489 1491 1494 1496 1499 1501 1503 1506 1508 1510 1511 1512 1513 1513 1513 1511 1510 1509 1508 1508 1509 1509 1509 1509 1508 1506 1505 1504 1503 1502 1502 1501 1501 1500 1499 1498 1497 1495 1494 1493 1491 1489 1487 1485 1484 1482 1480 1479 1478 1476 1474 1472 1470 1468 1466 1464 1462 1459 1456 1453 1449 1444 1440
1450 1451 1452 1453 1455 1456 1458 1459 1461 1462 1464 1466 1468 1470 1473 1475 1477 1479 1480 1482 1483 1484 1486 1488 1491 1494 1496 1498 1500 1502 1505 1506 1508 1509 1510 1510 1510 1508 1507 1507 1506 1505 1505 1506 1506 1506 1505 1503 1501 1500 1500 1499 1498 1498 1497 1497 1496 1494 1493 1492 1491 1489 1488 1486 1484 1482 1480 1479 1477 1476 1475 1473 1470 1468 1466 1464 1462 1460 1458 1455 1453 1450 1446 1441 1436
1448 1449 1450 1451 1452 1454 1455 1457 1458 1460 1462 1464 1467 1468 1471 1473 1475 1476 1478 1479 1481 1482 1484 1487 1489 1491 1493 1495 1496 1498 1500 1502 1503 1505 1506 1506 1506 1505 1505 1505 1504 1504 1503 1503 1503 1503 1501 1500 1498 1497 1497 1496 1495 1495 1494 1494 1493 1492 1491 1489 1488 1487 1485 1483 1481 1479 1478 1476 1474 1473 1471 1469 1467 1465 1463 1461 1458 1456 1454 1451 1448 1446 1442 1438 1434
1446 1447 1448 1449 1450 1451 1453 1455 1456 1458 1460 1462 1465 1468 1470 1473 1474 1475 1476 1477 1479 1481 1483 1485 1486 1488 1490 1492 1492 1493 1495 1497 1498 1499 1499 1500 1501 1502 1503 1503 1502 1501 1501 1501 1500 1499 1498 1497 1495 1495 1494 1493 1493 1492 1492 1491 1490 1489 1488 1487 1485 1484 1482 1481 1479 1477 1475 1473 1472 1470 1468 1466 1464 1461 1459 1457 1454 1452 1449 1445 1443 1440 1436 1433 1430
1443 1444 1445 1446 1447 1449 1451 1452 1454 1456 1458 1461 1464 1467 1470 1471 1472 1473 1474 1475 1477 1479 1481 1483 1484 1485 1487 1489 1489 1490 1492 1493 1495 1495 1496 1497 1498 1499 1500 1500 1499 1499 1499 1498 1497 1496 1495 1494 1492 1491 1491 1490 1490 1489 1489 1488 1487 1486 1485 1484 1483 1481 1480 1478 1476 1474 1472 1471 1469 1467 1465 1463 1461 1458 1456 1453 1450 1447 1443 1440 1437 1435 1431 1428 1425
1441 1442 1442 1443 1445 1446 1448 1450 1452 1454 1457 1459 1462 1465 1468 1469 1470 1471 1473 1474 1476 1477 1479 1480 1481 1483 1484 1485 1486 1487 1488 1490 1492 1493 1494 1495 1496 1497 1497 1497 1497 1496 1496 1495 1494 1493 1492 1491 1489 1489 1488 1488 1487 1486 1486 1485 1484 1483 1482 1481 1480 1479 1477 1476 1474 1472 1470 1468 1466 1464 1462 1460 1457 1455 1452 1449 1446 1442 1439 1435 1433 1430 1427 1424 1420
1438 1439 1440 1441 1442 1444 1446 1448 1450 1453 1456 1458 1461 1464 1466 1467 1468 1470 1471 1472 1474 1475 1476 1478 1479 1480 1481 1482 1483 1484 1486 1488 1489 1490 1491 1492 1493 1494 1494 1494 1494 1493 1493 1492 1491 1489 1488 1488 1487 1486 1485 1485 1484 1484 1483 1482 1481 1480 1479 1479 1477 1476 1475 1473 1472 1470 1468 1466 1464 1462 1459 1457 1454 1452 1449 1445 1442 1439 1435 1432 1429 1426 1423 1420 1416
1436 1437 1438 1439 1440 1442 1444 1446 1449 1451 1454 1456 1460 1462 1464 1465 1467 1468 1469 1470 1471 1472 1473 1475 1477 1479 1480 1481 1481 1483 1485 1486 1487 1488 1489 1490 1490 1491 1491 1491 1491 1490 1489 1488 1487 1486 1485 1485 1484 1484 1483 1482 1482 1481 1480 1480 1479 1478 1477 1476 1475 1474 1473 1471 1469 1467 1465 1464 1462 1459 1457 1454 1451 1448 1445 1442 1439 1437 1433 1430 1427 1423 1421 1417 1414
1434 1435 1436 1437 1439 1441 1443 1445 1448 1450 1452 1455 1458 1459 1461 1463 1465 1466 1467 1468 1469 1470 1471 1473 1475 1477 1478 1478 1479 1481 1484 1484 1485 1486 1487 1487 1488 1488 1488 1488 1488 1487 1486 1485 1484 1483 1483 1482 1482 1481 1480 1480 1480 1479 1478 1477 1476 1475 1474 1474 1473 1472 1471 1469 1467 1465 1463 1461 1459 1457 1454 1451 1448 1445 1442 1440 1437 1434 1432 1429 1425 1422 1419 1416 1412
1434 1434 1434 1436 1439 1440 1442 1445 1447 1449 1451 1453 1455 1456 1458 1462 1464 1465 1466 1468 1468 1470 1471 1472 1473 1474 1475 1476 1478 1480 1482 1482 1483 1484 1485 1485 1486 1486 1485 1485 1485 1484 1483 1482 1481 1481 1480 1480 1480 1479 1479 1479 1478 1477 1476 1475 1474 1473 1472 1472 1471 1470 1469 1467 1465 1463 1461 1459 1457 1454 1451 1448 1446 1443 1440 1438 1435 1433 1430 1427 1424 1421 1418 1415 1411
1432 1433 1434 1436 1437 1439 1441 1444 1446 1447 1449 1451 1453 1454 1458 1461 1463 1464 1465 1466 1467 1468 1470 1471 1471 1471 1473 1475 1477 1478 1479 1480 1481 1482 1483 1483 1483 1483 1483 1482 1482 1481 1480 1479 1479 1479 1478 1478 1478 1478 1478 1478 1477 1476 1475 1474 1473 1472 1471 1470 1469 1468 1467 1465 1463 1461 1459 1457 1455 1452 1449 1446 1444 1441 1439 1436 1433 1431 1428 1426 1423 1420 1417 1414 1410
1432 1433 1434 1435 1437 1438 1441 1443 1444 1446 1448 1450 1451 1454 1457 1460 1461 1462 1464 1465 1466 1467 1467 1468 1469 1469 1471 1473 1475 1476 1477 1478 1479 1480 1480 1480 1481 1480 1480 1480 1479 1479 1478 1477 1477 1476 1476 1476 1476 1476 1476 1476 1475 1474 1473 1472 1471 1471 1469 1468 1467 1466 1465 1463 1461 1459 1457 1455 1453 1450 1447 1445 1443 1440 1438 1435 1432 1430 1427 1424 1422 1419 1416 1413 1409
1432 1433 1434 1435 1436 1438 1440 1442 1444 1445 1447 1449 1451 1453 1456 1458 1460 1461 1463 1464 1464 1465 1466 1466 1467 1468 1469 1471 1473 1474 1475 1476 1476 1477 1478 1478 1478 1478 1477 1477 1477 1476 1476 1475 1475 1474 1474 1474 1474 1474 1474 1474 1473 1472 1471 1470 1469 1469 1468 1467 1465 1464 1463 1461 1459 1457 1455 1453 1451 1449 1446 1444 1442 1439 1437 1434 1431 1429 1426 1423 1421 1419 1416 1412 1409
1432 1433 1434 1435 1437 1439 1440 1442 1444 1445 1446 1448 1450 1452 1455 1457 1459 1460 1461 1462 1463 1464 1464 1465 1466 1466 1468 1470 1471 1472 1473 1474 1474 1475 1475 1475 1475 1475 1475 1474 1474 1473 1473 1473 1473 1472 1472 1472 1472 1472 1472 1471 1471 1470 1469 1468 1467 1466 1465 1464 1463 1462 1461 1459 1457 1455 1453 1451 1449 1447 1445 1443 1441 1438 1436 1434 1431 1428 1425 1423 1420 1418 1415 1411 1408
1432 1434 1435 1436 1437 1439 1441 1442 1443 1444 1446 1448 1450 1451 1453 1456 1458 1459 1459 1460 1461 1462 1463 1464 1465 1466 1467 1469 1470 1471 1471 1472 1472 1473 1473 1473 1473 1472 1472 1472 1471 1471 1471 1471 1471 1471 1471 1471 1471 1471 1470 1470 1469 1468 1467 1466 1465 1464 1463 1462 1461 1460 1458 1457 1455 1453 1452 1450 1448 1446 1444 1442 1440 1438 1436 1433 1431 1428 1425 1423 1420 1417 1414 1411 1407
1433 1434 1436 1437 1438 1440 1441 1442 1443 1444 1446 1447 1449 1451 1453 1455 1456 1457 1458 1459 1459 1460 1461 1462 1464 1465 1466 1467 1468 1469 1469 1470 1470 1471 1471 1471 1470 1470 1470 1469 1469 1469 1469 1469 1469 1469 1469 1470 1469 1469 1468 1467 1467 1466 1465 1464 1463 1462 1461 1460 1459 1458 1456 1455 1454 1452 1451 1449 1447 1445 1443 1442 1440 1437 1435 1433 1430 1428 1425 1422 1420 1417 1414 1411 1408
1434 1435 1436 1438 1439 1440 1441 1442 1443 1444 1446 1447 1449 1451 1453 1454 1455 1456 1456 1457 1458 1459 1460 1461 1462 1464 1465 1465 1466 1467 1467 1468 1468 1468 1468 1468 1468 1468 1468 1468 1467 1467 1467 1467 1467 1467 1468 1468 1467 1466 1466 1465 1464 1464 1463 1462 1461 1460 1459 1458 1457 1456 1455 1454 1453 1451 1450 1448 1447 1445 1443 1441 1439 1437 1435 1432 1430 1428 1425 1422 1420 1417 1414 1411 1408
1434 1435 1436 1438 1439 1440 1441 1442 1443 1444 1446 1447 1449 1450 1452 1453 1454 1454 1455 1456 1457 1458 1459 1460 1461 1462 1463 1463 1464 1464 1465 1466 1466 1466 1466 1466 1466 1466 1466 1466 1466 1466 1466 1466 1466 1466 1466 1465 1465 1464 1464 1463 1462 1461 1461 1460 1459 1458 1457 1456 1455 1454 1454 1453 1452 1450 1449 1447 1446 1444 1442 1441 1439 1437 1435 1432 1430 1427 1425 1422 1420 1417 1414 1412 1409
1434 1435 1436 1437 1438 1439 1441 1442 1443 1445 1446 1447 1448 1449 1450 1451 1452 1453 1454 1455 1456 1456 1457 1458 1459 1460 1460 1461 1462 1462 1463 1463 1464 1464 1464 1464 1464 1464 1464 1465 1464 1464 1465 1464 1464 1464 1464 1463 1463 1462 1462 1461 1460 1459 1459 1458 1457 1456 1456 1455 1454 1453 1453 1452 1451 1450 1448 1447 1445 1443 1442 1440 1438 1436 1434 1432 1429 1427 1425 1422 1420 1417 1414 1412 1409
1434 1435 1435 1436 1437 1439 1440 1442 1443 1444 1445 1446 1447 1448 1449 1450 1451 1451 1452 1453 1454 1455 1455 1456 1457 1458 1458 1459 1460 1460 1461 1461 1461 1462 1462 1462 1462 1463 1463 1463 1463 1463 1462 1462 1462 1462 1462 1461 1461 1460 1459 1459 1458 1457 1457 1456 1455 1455 1454 1453 1453 1452 1452 1451 1450 1449 1448 1446 1445 1443 1442 1440 1438 1436 1434 1432 1430 1427 1425 1422 1420 1417 1415 1412 1409
1433 1434 1435 1436 1438 1439 1440 1442 1443 1444 1445 1445 1446 1447 1447 1448 1449 1450 1451 1452 1453 1453 1454 1455 1455 1456 1456 1457 1458 1458 1459 1459 1459 1460 1460 1461 1461 1461 1462 1461 1461 1461 1460 1460 1460 1460 1460 1459 1459 1458 1457 1457 1456 1455 1455 1454 1454 1453 1453 1452 1452 1451 1451 1450 1449 1448 1447 1445 1444 1443 1441 1440 1438 1436 1434 1432 1430 1427 1425 1422 1420 1418 1415 1413 1410
1433 1434 1436 1437 1439 1440 1440 1442 1443 1443 1444 1445 1445 1446 1446 1447 1447 1449 1450 1451 1451 1452 1452 1453 1453 1454 1454 1455 1456 1457 1457 1457 1458 1458 1459 1459 1459 1460 1460 1460 1459 1459 1459 1458 1458 1458 1458 1457 1457 1456 1456 1455 1454 1454 1453 1453 1452 1452 1452 1451 1451 1451 1450 1449 1448 1447 1446 1445 1444 1442 1441 1440 1438 1436 1434 1432 1429 1427 1425 1422 1420 1418 1416 1414 1411
1434 1435 1436 1437 1438 1439 1440 1441 1442 1443 1443 1444 1444 1445 1445 1446 1447 1448 1448 1449 1449 1450 1450 1451 1451 1451 1452 1453 1454 1455 1455 1456 1456 1457 1457 1458 1458 1458 1458 1458 1457 1457 1457 1457 1456 1456 1456 1455 1455 1455 1454 1454 1453 1452 1452 1451 1451 1451 1451 1450 1450 1450 1449 1448 1447 1446 1445 1444 1443 1442 1441 1439 1438 1436 1434 1432 1429 1427 1425 1423 1420 1418 1416 1414 1412
1434 1435 1436 1437 1437 1438 1439 1440 1441 1441 1442 1442 1443 1443 1444 1444 1445 1446 1446 1447 1448 1448 1448 1449 1449 1449 1450 1451 1452 1453 1453 1454 1455 1455 1455 1456 1456 1456 1456 1456 1456 1455 1455 1455 1454 1454 1454 1454 1453 1453 1453 1452 1452 1451 1451 1450 1450 1450 1450 1449 1449 1449 1448 1447 1447 1445 1444 1443 1442 1441 1440 1439 1438 1436 1434 1432 1429 1427 1425 1423 1421 1419 1416 1415 1413
1434 1434 1435 1436 1437 1438 1438 1439 1440 1441 1441 1441 1442 1442 1443 1443 1444 1444 1445 1446 1446 1446 1447 1447 1447 1447 1448 1448 1449 1450 1451 1452 1453 1453 1453 1454 1454 1454 1454 1454 1454 1453 1453 1453 1452 1452 1452 1452 1452 1452 1451 1451 1450 1450 1450 1449 1449 1449 1449 1449 1448 1448 1447 1446 1446 1444 1443 1443 1442 1441 1440 1439 1437 1436 1434 1432 1429 1427 1425 1423 1421 1419 1417 1415 1413
1434 1434 1435 1436 1436 1437 1438 1439 1439 1440 1440 1441 1441 1442 1442 1443 1443 1443 1444 1444 1445 1445 1445 1445 1445 1445 1446 1447 1447 1448 1449 1450 1451 1451 1451 1451 1452 1452 1452 1452 1452 1452 1451 1451 1451 1451 1451 1451 1451 1450 1450 1450 1449 1449 1448 1448 1448 1448 1448 1448 1447 1447 1446 1445 1445 1444 1443 1442 1441 1440 1439 1438 1437 1436 1434 1432 1430 1428 1426 1424 1422 1420 1417 1415 1414
1434 1434 1434 1435 1436 1436 1437 1438 1438 1439 1440 1440 1441 1441 1442 1442 1442 1443 1443 1443 1443 1444 1444 1444 1444 1444 1444 1445 1446 1446 1447 1448 1448 1448 1449 1449 1450 1450 1450 1450 1450 1450 1449 1449 1449 1449 1449 1449 1449 1449 1449 1448 1448 1447 1447 1447 1447 1447 1447 1446 1446 1445 1445 1444 1443 1443 1442 1441 1440 1440 1439 1438 1437 1435 1434 1432 1430 1428 1426 1425 1423 1421 1419 1416 1415
1433 1433 1433 1434 1435 1435 1436 1437 1437 1438 1439 1440 1440 1440 1441 1441 1442 1442 1442 1442 1442 1443 1442 1442 1442 1443 1443 1443 1444 1444 1445 1446 1446 1446 1447 1448 1448 1448 1448 1448 1448 1448 1447 1447 1447 1447 1448 1448 1448 1447 1447 1447 1446 1446 1446 1446 1446 1445 1445 1445 1445 1444 1443 1443 1442 1442 1441 1440 1440 1439 1438 1437 1436 1435 1434 1432 1430 1429 1427 1425 1423 1422 1420 1418 1416
1432 1432 1433 1433 1434 1435 1435 1436 1437 1438 1438 1439 1439 1440 1440 1441 1441 1441 1441 1441 1441 1441 1441 1441 1441 1441 1441 1442 1442 1442 1443 1443 1444 1444 1445 1445 1446 1446 1446 1446 1446 1446 1446 1445 1446 1446 1446 1446 1446 1446 1446 1445 1445 1445 1445 1444 1444 1444 1444 1444 1443 1443 1442 1441 1441 1440 1440 1439 1439 1438 1437 1436 1436 1435 1433 1432 1430 1429 1427 1426 1424 1422 1421 1419 1417
1431 1432 1432 1433 1433 1434 1435 1436 1437 1437 1438 1438 1439 1439 1439 1440 1440 1440 1440 1440 1440 1440 1440 1440 1440 1440 1440 1440 1440 1440 1441 1441 1442 1443 1443 1444 1444 1445 1444 1444 1444 1444 1444 1444 1444 1444 1445 1445 1445 1445 1445 1444 1444 1444 1443 1443 1443 1443 1443 1442 1442 1441 1441 1440 1439 1439 1438 1438 1437 1437 1436 1436 1435 1434 1433 1432 1431 1429 1428 1426 1425 1423 1422 1420 1418
1431 1431 1432 1432 1433 1433 1434 1435 1436 1436 1437 1437 1437 1438 1438 1438 1439 1439 1439 1439 1439 1438 1438 1438 1438 1438 1438 1438 1438 1439 1439 1440 1440 1441 1441 1442 1442 1442 1443 1443 1443 1443 1442 1442 1442 1443 1443 1443 1443 1443 1443 1443 1442 1442 1442 1442 1442 1441 1441 1441 1440 1439 1439 1438 1438 1437 1437 1436 1436 1436 1436 1435 1435 1434 1433 1432 1431 1430 1428 1427 1425 1424 1423 1421 1420
1430 1431 1431 1432 1432 1433 1434 1435 1435 1435 1436 1436 1436 1437 1437 1438 1438 1438 1437 1437 1437 1437 1436 1436 1436 1436 1436 1436 1437 1437 1437 1438 1438 1439 1439 1440 1440 1440 1441 1441 1441 1441 1441 1441 1441 1441 1442 1442 1442 1442 1442 1441 1441 1441 1441 1441 1440 1440 1440 1439 1439 1438 1437 1437 1436 1436 1435 1435 1435 1435 1435 1434 1434 1433 1433 1432 1431 1430 1429 1427 1426 1425 1424 1423 1421